Flag for Norway Weather past 2 weeks in Elverum, Norway

Now
60 °F

Cool.


Feels Like: 60 °F
Forecast: 56 / 76 °F
Wind: 1 mph from Southeast

Location: Haugedalshogda

Current Time: Jul 29, 2014 at 1:22:01 AM

Latest Report: Jul 29, 2014 at 12:00 AM


Visibility: N/A

Pressure: 29.94 "Hg

Humidity: 91%

Dew point: 57 °F

Location of ElverumLocation

Historic Weather in Elverum — Graph

°F

Elverum temperature yesterday

Maximum temperature yesterday: 80 °F (at 4:00 PM)
Minimum temperature yesterday: 54 °F (at 2:00 AM)
Average temperature yesterday: 66 °F

Past Weeks' High & Low Weather Summary

 TemperatureHumidityPressure
High88 °F (Jul 23, 5:00 PM)94% (Jul 14, 4:00 AM)30.39 "Hg (Jul 14, 4:00 AM)
Low44 °F (Jul 21, 4:00 AM)23% (Jul 24, 2:00 PM)29.70 "Hg (Jul 14, 4:00 PM)
Average66 °F69%30.07 "Hg
* Reported Midnight between Jul 13 and Jul 14 — Midnight between Jul 28 and Jul 29, Elverum, Weather by CustomWeather, © 2014

Note: Actual official high and low records may vary slightly from our data, if they occured in-between our weather recording intervals... More about our weather records

Advertising

Elverum weather history for previous 24 hours

 ConditionsComfort  
Time TempWeatherWind HumidityBarometerVisibility
12:00 AM
Jul 29
60 °FCool.1 mph91%29.94 "HgN/A
11:00 PM
Jul 28
63 °FMild.1 mph91%29.93 "HgN/A
10:00 PM65 °FMild.1 mph88%29.93 "HgN/A
9:00 PM66 °FMild.2 mph81%29.91 "HgN/A
8:00 PM65 °FMild.1 mph83%29.92 "HgN/A
7:00 PM68 °FMild.2 mph78%29.91 "HgN/A
6:00 PM68 °FMild.1 mph70%29.90 "HgN/A
5:00 PM74 °FMild.5 mph53%29.86 "HgN/A
4:00 PM80 °FPleasantly warm.5 mph37%29.84 "HgN/A
3:00 PM80 °FWarm.3 mph42%29.85 "HgN/A
2:00 PM78 °FWarm.3 mph44%29.86 "HgN/A
1:00 PM77 °FMild.2 mph50%29.88 "HgN/A
12:00 PM75 °FMild.5 mph55%29.91 "HgN/A
11:00 AM72 °FMild.2 mph62%29.93 "HgN/A
10:00 AM68 °FMild.3 mph74%29.95 "HgN/A
9:00 AM64 °FMild.3 mph81%29.96 "HgN/A
8:00 AM61 °FCool.2 mph90%29.96 "HgN/A
7:00 AM59 °FCool.2 mph93%29.98 "HgN/A
6:00 AM57 °FCool.2 mph94%29.98 "HgN/A
5:00 AM57 °FCool.1 mph94%29.97 "HgN/A
4:00 AM56 °FCool.No wind93%29.98 "HgN/A
3:00 AM55 °FCool.1 mph94%29.98 "HgN/A
2:00 AM54 °FCool.1 mph93%29.99 "HgN/A
1:00 AM55 °FCool.1 mph93%29.98 "HgN/A
Weather by CustomWeather, © 2014

See weather overviewHow to use our weather pages